This demonstration page uses our WeatherBlox Daily Observations layout. Learn more.

38.88101, -77.10428

Hourly Observations for August 12, 2017

Temp ( °F °C ) Dew Point ( °F °C ) Humidity (%) Winds ( mph kmh ) Pressure ( in mb ) Visibility ( mi km ) Precip ( " mm )
12:33 am 00:33 Mostly Cloudy 73 22.8 72 22.2 96 96 NNE 5 7 29.97 1015 10 16.0934 0 0
12:52 am 00:52 Cloudy 74 23.3 73 22.8 97 97 NE 3 6 29.96 1015 10 16.0934 0 0
1:02 am 01:02 Cloudy 74 23.3 73 22.8 97 97 E 5 7 29.97 1015 10 16.0934 0 0
1:13 am 01:13 Mostly Cloudy 74 23.3 72 22.2 94 94 ESE 7 11 29.97 1015 10 16.0934 0 0
1:33 am 01:33 Mostly Cloudy 73 22.8 72 22.2 96 96 Calm 29.97 1015 10 16.0934 0 0
1:52 am 01:52 Cloudy 73 22.8 72 22.2 96 96 SSW 3 6 29.96 1015 10 16.0934 0 0
1:59 am 01:59 Cloudy 73 22.8 72 22.2 96 96 SSE 5 7 29.97 1015 10 16.0934 0 0
2:52 am 02:52 Cloudy 73 22.8 72 22.2 96 96 Calm 29.94 1014 10 16.0934 0 0
3:21 am 03:21 Cloudy 73 22.8 72 22.2 96 96 SSW 5 7 29.94 1014 10 16.0934 0 0
3:52 am 03:52 Cloudy 73 22.8 72 22.2 96 96 SW 6 9 29.94 1014 10 16.0934 0 0
3:59 am 03:59 Cloudy 73 22.8 72 22.2 96 96 SW 5 7 29.94 1014 10 16.0934 0 0
4:52 am 04:52 Cloudy 73 22.8 72 22.2 96 96 SSW 3 6 29.94 1014 10 16.0934 0 0
5:52 am 05:52 Cloudy 73 22.8 72 22.2 96 96 Calm 29.94 1014 10 16.0934 0 0
6:07 am 06:07 Cloudy 73 22.8 72 22.2 96 96 Calm 29.94 1014 10 16.0934 0 0
6:52 am 06:52 Cloudy 74 23.3 72 22.2 94 94 Calm 29.95 1014 10 16.0934 0 0
6:55 am 06:55 Cloudy 74 23.3 72 22.2 94 94 Calm 29.94 1014 10 16.0934 0 0
7:52 am 07:52 Cloudy 74 23.3 73 22.8 97 97 Calm 29.96 1014 10 16.0934 0 0
7:54 am 07:54 Cloudy 74 23.3 72 22.2 94 94 Calm 29.97 1015 10 16.0934 0 0
8:52 am 08:52 Cloudy 74 23.3 72 22.2 94 94 Calm 29.96 1015 10 16.0934 0 0
8:55 am 08:55 Cloudy 74 23.3 72 22.2 94 94 W 3 6 29.97 1015 10 16.0934 0 0
9:07 am 09:07 Cloudy 75 23.9 73 22.8 94 94 Calm 29.97 1015 10 16.0934 0 0
9:20 am 09:20 Cloudy 75 23.9 73 22.8 94 94 S 3 6 29.97 1015 10 16.0934 0 0
9:23 am 09:23 Cloudy 75 23.9 73 22.8 94 94 S 3 6 29.97 1015 10 16.0934 0 0
9:40 am 09:40 Cloudy with Light Rain 75 23.9 74 23.3 96 96 SSW 5 7 29.97 1015 10 16.0934 0 0.0254
9:52 am 09:52 Cloudy with Light Rain 75 23.9 74 23.3 96 96 S 5 7 29.96 1015 10 16.0934 0 0.0254
10:08 am 10:08 Mostly Cloudy 76 24.4 74 23.3 94 94 WSW 3 6 29.97 1015 10 16.0934 0 0.0254
10:14 am 10:14 Mostly Cloudy 76 24.4 74 23.3 94 94 WSW 5 7 29.97 1015 10 16.0934 0 0.0254
10:52 am 10:52 Cloudy 78 25.6 74 23.3 87 87 SW 8 13 29.95 1014 10 16.0934 0 0.0254
11:21 am 11:21 Mostly Cloudy 79 26.1 74 23.3 85 85 W 8 13 29.94 1014 10 16.0934 0 0
11:52 am 11:52 Cloudy 79 26.1 73 22.8 82 82 SSW 8 13 29.94 1014 10 16.0934 0 0
12:52 pm 12:52 Cloudy 80 26.7 75 23.9 85 85 S 8 13 29.93 1013 10 16.0934 0 0
1:23 pm 13:23 Partly Cloudy with Light Rain 81 27.2 75 23.9 82 82 S 7 11 29.91 1013 10 16.0934 0 0.0254
1:43 pm 13:43 Mostly Cloudy 82 27.8 74 23.3 77 77 S 7 11 29.91 1013 10 16.0934 0 0.0254
1:52 pm 13:52 Mostly Cloudy 82 27.8 74 23.3 77 77 SSE 7 11 29.91 1013 10 16.0934 0 0.0254
2:52 pm 14:52 Partly Cloudy 83 28.3 74 23.3 74 74 S 7 11 29.9 1012 10 16.0934 0 0
3:52 pm 15:52 Mostly Cloudy 83 28.3 74 23.3 74 74 S 9 15 29.87 1012 10 16.0934 0 0
4:52 pm 16:52 Mostly Cloudy 85 29.4 75 23.9 72 72 S 9 15 29.86 1011 10 16.0934 0 0
5:52 pm 17:52 Mostly Cloudy 84 28.9 75 23.9 74 74 S 8 13 29.86 1011 10 16.0934 0 0
6:52 pm 18:52 Mostly Cloudy 83 28.3 75 23.9 77 77 S 7 11 29.86 1011 10 16.0934 0 0
7:29 pm 19:29 Mostly Cloudy with Thunderstorms 82 27.8 75 23.9 79 79 S 10 17 29.85 1011 10 16.0934 0 0
7:52 pm 19:52 Mostly Cloudy with Light Thunderstorms 82 27.8 75 23.9 79 79 SSW 8 13 29.87 1011 10 16.0934 0 0.0254
7:58 pm 19:58 Windy with Storms Likely 78 25.6 70 21.1 76 76 N 32 52 29.88 1012 10 16.0934 0 0.0254
8:02 pm 20:02 Cloudy with Heavy Thunderstorms 75 23.9 70 21.1 84 84 N 21 33 29.88 1012 2 3.21868 0 0.0254
8:07 pm 20:07 Cloudy with Heavy Thunderstorms 73 22.8 72 22.2 96 96 NNE 22 35 29.88 1012 1.25 2.011675 0.07 1.778
8:09 pm 20:09 Cloudy with Heavy Thunderstorms 73 22.8 72 22.2 96 96 NNE 18 30 29.88 1012 1.25 2.011675 0.11 2.794
8:22 pm 20:22 Cloudy with Heavy Thunderstorms 72 22.2 72 22.2 100 100 W 5 7 29.91 1013 2.5 4.02335 0.45 11.43
8:28 pm 20:28 Cloudy with Light Thunderstorms 72 22.2 72 22.2 100 100 Calm 29.88 1012 7 11.26538 0.5 12.7
8:52 pm 20:52 Cloudy with Light Thunderstorms 72 22.2 72 22.2 100 100 SE 12 19 29.87 1012 7 11.26538 0.52 13.208
9:01 pm 21:01 Cloudy with Light Rain 72 22.2 72 22.2 100 100 SE 6 9 29.88 1012 10 16.0934 0 0.0254
9:52 pm 21:52 Cloudy with Light Rain 73 22.8 70 21.1 90 90 Calm 29.9 1013 10 16.0934 0 0.0254
10:11 pm 22:11 Cloudy with Light Rain 73 22.8 72 22.2 96 96 SW 9 15 29.91 1013 10 16.0934 0 0.0254
10:52 pm 22:52 Cloudy 72 22.2 71 21.7 97 97 SW 6 9 29.9 1012 10 16.0934 0 0.0254
11:52 pm 23:52 Cloudy 73 22.8 72 22.2 96 96 SW 3 6 29.91 1013 10 16.0934 0 0

Powered by AerisWeather